Bloomington, IN

12:26 AM EDT on May 24, 2017 (GMT -0400)
Monroe County

Weather History for KBMG - July, 2013

Change the Weather History Date:

Wednesday, July 24, 2013

  Actual Average Record
Temperature  
Mean Temperature 67 °F 74 °F  
Max Temperature 77 °F 84 °F 99 °F (2012)
Min Temperature 57 °F 63 °F 52 °F (2007)
Degree Days  
Heating Degree Days 0 0  
Month to date heating degree days 0 0  
Since 1 June heating degree days 7 15  
Since 1 July heating degree days 0 0  
Cooling Degree Days 2 9  
Month to date cooling degree days 232 216  
Year to date cooling degree days 575 506  
Since 1 June cooling degree days 456 424  
Growing Degree Days 16 (Base 50)    
Moisture  
Dew Point 57 °F    
Average Humidity 72    
Maximum Humidity 93    
Minimum Humidity 50    
Precipitation  
Precipitation 0.00 in 0.13 in 1.71 in (2001)
Month to date precipitation 4.09 4.19  
Year to date precipitation 28.67 28.97  
Sea Level Pressure  
Sea Level Pressure 29.94 in    
Wind  
Wind Speed 6 mph (NNE)    
Max Wind Speed 14 mph    
Max Gust Speed 17 mph    
Visibility 10 miles    
Events      
T = Trace of Precipitation, MM = Missing Value Source: NWS Daily Summary

Daily Weather History Graph

Daily Weather History Graph

Search for Another Location

Airport or City:

Trip Planner

Search our weather history database for the weather conditions in past years. The results will help you decide how hot, cold, wet, or windy it might be!

Date:

Astronomy

Jul. 24, 2013 Rise Set
Actual Time 6:40 AM EDT 9:05 PM EDT
Civil Twilight 6:09 AM EDT 9:35 PM EDT
Nautical Twilight 5:31 AM EDT 10:13 PM EDT
Astronomical Twilight 4:49 AM EDT 10:55 PM EDT
Moon 10:12 PM EDT 8:58 AM EDT
Length of Visible Light 15h 26m
Length of Day
14h 25m
Waning Gibbous, 95% of the Moon is Illuminated
Jul 24
Waning Gibbous
Jul 29
Last Quarter
Aug 6
New
Aug 14
First Quarter
Aug 20
Full

Hourly Weather History & Observations

Time (EDT) Temp. Dew Point Humidity Pressure Visibility Wind Dir Wind Speed Gust Speed Precip Events Conditions
12:53 AM 68.0 °F 57.9 °F 70% 29.86 in 10.0 mi North 10.4 mph - N/A   Clear
1:53 AM 66.0 °F 59.0 °F 78% 29.87 in 10.0 mi North 6.9 mph - N/A   Partly Cloudy
2:53 AM 64.9 °F 57.0 °F 75% 29.89 in 10.0 mi NNE 11.5 mph - N/A   Scattered Clouds
3:53 AM 61.0 °F 55.0 °F 81% 29.90 in 10.0 mi North 8.1 mph - N/A   Overcast
4:53 AM 60.1 °F 55.0 °F 83% 29.89 in 10.0 mi North 6.9 mph - N/A   Clear
5:53 AM 57.9 °F 55.0 °F 90% 29.90 in 10.0 mi North 5.8 mph - N/A   Clear
6:53 AM 57.0 °F 55.0 °F 93% 29.92 in 10.0 mi North 4.6 mph - N/A   Clear
7:53 AM 59.0 °F 55.9 °F 90% 29.92 in 10.0 mi North 6.9 mph - N/A   Clear
8:53 AM 62.1 °F 55.0 °F 78% 29.94 in 10.0 mi NNE 9.2 mph - N/A   Clear
9:53 AM 64.9 °F 55.9 °F 73% 29.95 in 10.0 mi ENE 6.9 mph - N/A   Clear
10:53 AM 68.0 °F 57.0 °F 68% 29.96 in 10.0 mi North 5.8 mph - N/A   Partly Cloudy
11:53 AM 70.0 °F 57.0 °F 63% 29.96 in 10.0 mi NNE 4.6 mph - N/A   Partly Cloudy
12:53 PM 71.1 °F 57.9 °F 63% 29.96 in 10.0 mi North 8.1 mph - N/A   Scattered Clouds
1:53 PM 73.0 °F 55.9 °F 55% 29.96 in 10.0 mi Variable 3.5 mph - N/A   Partly Cloudy
2:53 PM 73.9 °F 57.0 °F 55% 29.96 in 10.0 mi North 4.6 mph - N/A   Clear
3:53 PM 75.9 °F 57.0 °F 52% 29.96 in 10.0 mi North 5.8 mph - N/A   Clear
4:53 PM 75.0 °F 57.0 °F 53% 29.96 in 10.0 mi NNE 8.1 mph - N/A   Partly Cloudy
5:53 PM 75.9 °F 55.9 °F 50% 29.94 in 10.0 mi NNE 6.9 mph - N/A   Partly Cloudy
6:53 PM 75.0 °F 55.9 °F 51% 29.95 in 10.0 mi NNE 5.8 mph - N/A   Clear
7:53 PM 73.0 °F 57.0 °F 57% 29.96 in 10.0 mi North 3.5 mph - N/A   Clear
8:53 PM 69.1 °F 57.9 °F 68% 29.98 in 10.0 mi Variable 3.5 mph - N/A   Mostly Cloudy
9:53 PM 66.0 °F 59.0 °F 78% 29.98 in 10.0 mi Calm Calm - N/A   Clear
10:53 PM 63.0 °F 57.9 °F 84% 30.00 in 10.0 mi North 4.6 mph - N/A   Clear
11:53 PM 63.0 °F 55.9 °F 78% 30.00 in 10.0 mi NNE 4.6 mph - N/A   Clear